Hauptseite
METAR-TAF:

METAR-TAF

Flughäfen :

Emmen, Schweiz

Militärflugplatz Emmen

Breite: 47-05-32N, Länge: 8-18-16E, Höhe: 426 m

Beobachtung

Neuester Wetterbericht von vor 50 Minuten, um 23:50 UTC
Windstille
Temperatur 0°C
Luftfeuchtigkeit 100%
Luftdruck 1012 hPa
Sichtweite: 1200 m
Leicht bewölkt in der Höhe von 900 ft
Schnee leicht, feuchter Dunst

METAR: LSME 272350Z AUTO 00000KT 1200NDV R04/1800D R22/1500N -SN BR FEW009 00/00 Q1012 RESN RMK

Zeit: 02:40 (00:40 UTC)


TAF: fehlend

Wetterbeobachtungen und Prognosen von mehr als 4000 Flughäfen (METAR und TAF Bericht).

Die verfügbaren Stationen werden durch gelbe und rote Markierungen auf der Karte dargestellt.

Führen Sie die Maus auf sie, um den Namen der Station zu sehen.

Darauf klicken, um die Beobachtung von Wetterbeobachtungen und Prognosen zu sehen.

Um die Karte zu ändern : klicken Sie auf den grünen Tasten mit einem schwarzen Kreuz Zum Vergrößern, auf den grünen Button mit einem Gedankenstrich zu verkleinern, oder auf die grünen Pfeile für benachbarte Karten.


METAR-TAF: